User: anonymous   Login
Location: Muenchen
(48.1800°N, 11.5800°E)
Time: 21:45:12
(UTC+02:00)
Language:

Cosmos 2233 Rocket - Orbit

View from above orbital plane
View from above orbital plane
View from above satellite
View from above satellite

Ground track
Ground track

The orbit data is extracted from the following two-line orbital elements,

1 22488U 93008B   15186.53219683  .00000085  00000-0  69627-4 0  9999
2 22488 082.9427 248.7461 0026646 064.1180 049.4226 13.77668063126131
Epoch (UTC): 05 July 2015 12:46:21
Eccentricity: 0.0026646
inclination: 82.9427°
perigee height: 952 km
apogee height: 992 km
right ascension of ascending node: 248.7461°
argument of perigee: 64.1180°
revolutions per day: 13.77668063
mean anomaly at epoch: 49.4226°
orbit number at epoch: 12613

The dashed part of the orbit path shows where the satellite is in the earth's shadow,  

DLR